Theta_e
285 280 278 279 281 282 281 279 279 282 285 282 282 283 285 288 288 287 287 288 288 289 294 294 295 298 303 320 321 322 326 330 329 328 326 326 323 324 323 322 321 320 321 320
280 277 282 285 284 282 281 280 279 282 284 284 282 281 285 287 285 285 286 289 291 293 294 296 296 295 297 304 320 321 323 328 329 329 327 326 324 322 321 321 320 319 320 320
278 279 285 284 281 281 281 280 280 280 282 283 281 279 281 284 284 288 291 292 293 292 292 293 295 296 297 298 304 321 321 325 329 329 328 314 309 308 307 309 309 312 316 315
279 283 282 281 281 282 279 282 281 280 278 270 281 272 279 282 284 288 290 292 292 291 292 293 293 294 295 297 300 303 321 322 327 329 323 316 317 312 314 311 304 302 305 306
276 279 280 280 281 284 280 283 281 280 278 279 277 275 277 282 281 288 290 290 292 292 291 291 292 294 295 296 296 299 315 320 324 328 321 318 319 317 306 301 299 297 297 298
279 283 282 281 284 283 283 281 280 279 278 267 276 277 276 280 285 287 288 289 289 290 290 291 292 294 294 294 295 296 303 318 320 325 320 317 319 303 300 300 298 297 296 295
276 277 280 283 279 282 281 275 264 265 263 265 278 276 279 283 286 285 285 287 289 289 289 289 289 290 292 292 293 295 300 307 320 321 318 317 317 305 304 302 300 295 293 293
268 267 278 281 279 277 279 274 265 262 263 270 279 274 279 289 288 289 289 289 289 289 289 288 289 290 290 291 292 293 296 300 317 319 316 316 308 306 305 304 300 299 296 293
268 270 279 279 280 281 275 270 280 275 271 272 275 279 284 287 287 289 288 288 287 287 287 287 288 288 289 290 291 292 294 298 301 316 315 314 308 306 302 299 298 295 292 291
275 266 277 279 281 282 278 282 271 270 265 265 271 275 277 281 284 287 287 287 286 287 285 285 286 288 290 291 292 292 294 296 300 314 314 308 306 303 299 295 291 290 290 289
278 273 273 277 276 275 272 270 276 277 275 270 269 273 283 284 286 285 286 286 285 283 283 284 285 288 289 291 293 292 293 295 299 312 304 299 295 294 292 290 289 288 288 288
280 273 268 271 277 278 278 275 279 272 271 274 274 273 286 288 288 286 285 285 283 283 283 283 286 287 289 291 292 294 297 294 300 299 295 292 291 289 287 286 286 286 285 285
277 267 263 266 273 277 276 279 279 278 275 271 270 273 287 288 286 285 284 282 282 282 281 283 286 286 288 288 289 290 296 297 295 292 289 287 286 286 285 285 285 286 286 285
283 271 264 263 270 273 272 275 277 276 272 273 275 277 283 284 282 283 281 281 281 281 281 283 284 286 286 286 286 288 292 291 290 289 287 286 286 286 286 286 285 285 285 285
279 267 267 271 273 273 273 273 275 273 275 273 277 278 282 281 281 283 280 280 279 279 280 281 282 283 284 285 285 285 286 287 287 286 286 285 285 286 285 285 285 285 284 283
278 265 273 267 273 274 272 275 276 277 278 278 281 280 284 283 284 281 279 278 277 278 279 280 281 282 283 284 284 285 285 285 286 285 285 285 285 285 284 284 283 282 281 281
274 269 264 260 270 270 267 276 280 278 282 282 278 280 282 280 281 279 278 278 277 278 278 279 280 281 281 283 284 283 284 285 285 284 284 284 284 283 282 282 281 280 279 279
270 268 266 261 263 259 277 277 278 278 281 284 283 281 281 281 283 282 281 279 278 278 278 279 280 281 281 282 282 283 283 283 282 282 281 281 281 280 280 279 279 279 279 279
280 273 265 258 261 268 275 278 277 277 279 282 280 280 282 283 284 283 282 281 279 279 279 279 280 280 280 281 281 281 281 281 280 280 280 280 280 279 279 278 278 279 279 279
278 277 266 257 259 256 272 279 281 282 275 282 279 279 280 282 276 278 281 281 280 280 280 279 280 280 279 280 280 279 278 278 278 279 279 280 280 279 278 279 279 279 279 279
266 270 264 258 259 263 274 277 281 272 276 280 279 279 281 280 280 282 282 281 281 280 280 280 279 279 279 280 280 278 278 277 279 279 279 278 279 278 278 278 278 278 277 277
265 265 261 262 260 261 275 278 276 280 282 279 278 280 281 284 283 281 281 280 280 279 278 279 278 278 279 280 279 277 276 277 278 278 277 277 277 278 277 277 276 276 276 275
265 271 267 268 269 277 279 282 283 282 282 278 279 281 282 283 282 281 280 280 280 279 279 279 278 277 277 278 279 276 276 277 277 277 276 276 276 276 276 275 275 274 274 273
271 274 272 273 275 277 279 281 281 281 281 280 281 281 283 283 282 281 281 280 280 279 277 278 277 276 275 276 276 276 275 276 275 274 274 275 275 274 275 275 275 273 272 272
271 273 269 271 276 277 279 280 281 280 280 280 280 280 283 283 281 281 280 280 279 278 277 276 275 274 274 274 274 274 275 276 274 274 274 274 274 273 273 273 272 272 272 273
272 272 272 272 276 276 277 277 279 280 279 279 279 278 281 282 281 280 279 279 279 278 278 276 275 274 272 272 272 271 272 273 273 273 272 272 272 272 273 273 273 278 278 278
Wind_Speed
5 7 4 3 2 4 6 5 13 12 13 5 15 23 22 25 16 12 10 9 8 9 12 12 12 11 7 9 13 16 16 18 13 10 10 11 11 10 9 9 13 15 13 13
5 3 1 4 3 5 5 7 11 11 6 15 15 24 28 17 7 2 4 6 6 9 12 11 12 10 8 10 12 15 18 19 16 12 11 8 10 7 7 7 10 13 13 14
1 1 4 3 5 4 4 7 6 13 16 16 5 9 12 7 2 2 3 3 4 6 11 11 13 11 9 9 12 13 16 19 19 19 11 4 6 4 3 3 4 5 11 12
4 3 4 5 2 2 9 1 9 17 12 5 6 8 9 6 6 3 6 7 7 8 10 9 10 12 11 12 10 14 16 19 19 19 14 16 14 10 8 7 4 5 7 9
3 6 5 3 3 3 10 10 16 14 9 7 1 4 11 8 3 5 9 11 12 8 10 14 12 11 12 11 10 11 15 16 19 18 16 15 17 9 6 7 9 10 6 7
5 4 3 3 3 4 9 9 9 1 2 3 3 1 10 6 3 3 8 11 13 12 14 12 9 12 11 10 10 11 14 15 16 17 18 19 17 12 11 10 9 7 6 9
9 3 4 2 6 5 9 6 6 9 6 6 1 6 13 0 3 3 10 12 14 13 13 15 15 12 14 13 12 11 12 13 15 18 16 17 15 16 17 17 12 14 8 8
4 12 4 3 1 5 5 2 5 5 5 13 14 9 6 5 3 9 11 13 17 17 14 14 16 15 14 13 12 11 12 11 12 16 16 15 13 10 10 13 11 10 9 10
4 8 3 3 4 4 6 2 4 6 5 6 5 7 4 2 14 24 23 20 20 19 15 20 18 16 14 13 12 12 12 12 13 14 14 12 13 13 12 13 11 9 12 12
1 7 2 6 3 1 4 4 5 3 6 7 6 7 8 7 20 22 17 20 21 17 20 18 17 17 15 15 13 11 10 12 11 12 13 10 9 9 11 13 13 13 14 15
2 4 8 5 1 1 5 5 3 3 3 5 8 6 4 8 21 20 22 19 18 22 20 18 17 17 18 16 15 11 10 9 9 9 12 14 13 14 13 13 13 13 12 16
1 3 6 8 8 6 3 5 1 2 5 5 6 9 3 11 21 25 22 15 19 20 19 17 17 16 14 11 11 11 11 6 6 12 15 15 16 16 15 16 17 15 15 12
2 3 6 11 6 3 2 3 1 3 3 8 5 9 16 21 27 25 18 20 19 19 19 17 14 13 11 10 10 11 9 6 9 13 18 16 16 18 18 16 18 17 17 15
5 3 8 8 9 2 10 12 12 6 5 5 11 20 25 25 28 25 17 19 19 18 18 15 13 10 9 8 8 10 10 11 12 11 17 17 17 18 19 19 18 19 17 15
3 4 4 11 19 14 16 19 18 8 15 6 13 22 21 26 26 16 17 18 19 18 17 15 14 11 9 8 8 9 9 12 13 16 18 17 18 17 19 19 18 18 16 16
1 4 4 6 4 3 14 17 16 14 14 14 13 23 19 24 20 13 18 18 17 18 18 16 15 13 12 10 9 11 10 11 13 16 18 19 19 19 19 17 19 16 17 17
4 1 4 8 6 10 5 5 4 6 7 5 12 19 20 22 20 14 19 17 16 16 16 16 14 13 13 12 11 13 13 13 15 16 18 18 19 19 20 18 19 17 17 17
4 2 1 6 9 5 6 6 7 8 13 5 9 15 16 16 17 10 15 16 15 15 15 14 13 13 14 14 14 13 15 15 16 17 16 17 21 19 18 20 17 17 14 14
4 2 2 1 2 10 7 2 2 1 6 3 8 13 15 17 10 1 17 15 14 13 12 11 12 12 14 15 14 16 16 16 17 17 16 17 18 18 17 19 17 14 14 13
5 4 5 1 1 5 6 4 0 3 5 3 3 10 14 14 11 7 15 14 13 12 11 11 12 13 14 13 15 18 17 17 17 17 16 17 18 17 16 16 15 13 12 12
3 3 6 4 5 12 13 8 1 4 6 4 2 4 9 6 2 7 10 11 10 10 12 11 13 13 11 12 16 18 17 18 15 17 18 17 16 16 15 13 12 12 12 12
9 9 6 4 3 10 9 1 5 3 2 2 2 3 4 5 5 6 8 10 11 12 12 12 12 12 11 11 16 16 17 12 14 15 16 15 14 10 9 13 11 11 11 12
4 9 7 12 11 4 4 5 3 3 2 1 1 1 3 3 5 6 6 7 8 10 9 9 10 12 12 12 11 14 8 11 12 14 14 13 12 10 9 11 11 9 9 8
6 5 5 1 6 15 15 14 9 4 6 3 3 1 1 2 3 4 4 5 6 7 7 7 9 11 11 10 10 9 7 9 12 13 11 9 10 9 8 6 6 7 7 7
6 7 6 8 14 10 14 10 4 6 6 5 4 2 1 1 1 2 2 3 4 4 4 5 7 7 8 7 8 7 6 7 11 10 8 8 6 7 7 6 5 5 4 5
9 10 8 10 8 3 3 0 3 9 7 6 6 3 1 1 3 3 3 2 3 3 4 6 7 7 5 5 6 6 6 5 8 8 5 5 5 5 5 6 6 11 10 10
Wind_Direction
345 54 44 344 300 252 260 260 282 280 288 298 282 297 295 282 298 291 295 306 310 315 314 292 276 278 269 231 215 210 201 203 192 189 187 187 192 191 186 190 179 178 172 163
16 66 358 296 307 277 279 285 293 293 321 312 302 299 281 290 262 273 335 4 346 343 347 348 343 332 319 286 231 215 210 204 197 196 195 187 184 191 183 181 177 174 173 171
155 251 323 29 320 337 295 266 295 293 318 293 311 285 295 318 277 172 48 302 319 339 340 336 337 330 325 326 312 236 212 210 204 198 189 115 97 83 105 157 141 171 162 162
228 306 354 330 302 33 312 341 302 291 332 289 47 285 303 303 302 46 343 347 329 327 336 328 328 322 322 314 313 311 238 212 212 200 179 179 187 180 189 172 140 133 128 130
282 328 352 326 348 356 263 320 285 294 285 287 304 259 278 287 323 16 351 338 340 318 323 325 315 308 309 311 310 299 277 220 209 204 186 194 198 182 126 130 134 111 81 113
266 303 242 253 301 261 294 300 298 295 269 8 238 184 286 296 21 331 333 335 334 327 323 314 299 303 304 307 310 315 316 232 209 206 186 194 203 152 144 148 146 145 144 130
328 272 292 358 350 341 358 354 340 357 3 232 188 287 248 338 80 322 318 323 331 324 318 319 317 315 309 307 308 309 304 302 210 204 191 191 184 169 168 163 159 151 150 135
21 330 22 17 118 286 320 107 131 291 298 292 280 234 266 123 245 333 325 318 334 329 323 315 309 306 301 300 300 303 298 295 248 200 187 192 163 168 166 169 160 156 154 136
20 282 311 256 224 132 293 352 220 269 265 272 262 292 279 333 342 344 340 334 326 321 325 316 310 301 298 296 292 289 291 293 299 181 186 187 166 159 157 146 144 138 133 131
194 298 274 297 325 234 161 297 354 337 313 292 275 282 261 341 342 332 326 323 320 327 317 312 306 306 300 294 289 276 267 274 279 210 177 146 147 136 133 132 132 135 127 124
109 130 292 346 120 106 340 352 342 267 240 291 307 277 218 340 338 329 328 324 331 322 318 314 307 303 301 294 288 276 265 258 269 204 121 113 110 111 109 107 104 101 106 115
109 176 277 263 279 257 246 203 127 256 311 275 264 268 275 327 337 332 325 333 325 322 317 314 308 310 300 298 299 284 276 213 267 125 111 109 110 109 111 113 110 110 112 101
205 331 320 346 353 15 311 223 230 301 261 237 273 278 314 327 332 331 334 336 330 324 322 318 316 315 312 309 305 296 240 150 125 121 113 110 112 113 111 109 112 110 113 111
173 162 180 207 240 15 296 292 285 269 260 273 259 289 317 333 327 327 347 336 333 330 328 328 330 332 335 336 339 344 92 107 108 109 111 112 118 120 119 123 119 117 117 115
114 239 198 249 263 272 269 273 284 256 251 260 288 304 325 328 325 339 342 338 338 338 341 344 350 352 360 5 22 33 63 92 107 109 108 112 111 112 115 111 107 110 114 108
80 271 315 287 282 114 282 274 261 260 266 265 287 308 336 325 324 348 349 342 342 346 350 353 360 6 15 21 38 58 62 79 100 106 109 114 113 113 106 110 112 107 103 96
163 117 15 272 323 312 335 243 254 267 242 253 324 313 324 322 329 6 347 346 346 347 353 358 6 18 25 27 44 61 70 79 88 97 103 107 105 106 107 107 102 103 96 101
126 86 113 278 330 14 248 302 245 245 280 252 275 309 320 317 319 27 357 349 351 353 355 4 13 24 35 42 46 62 74 78 83 86 90 99 101 99 102 98 94 93 100 101
216 154 280 177 247 294 303 218 348 35 285 222 299 323 330 328 311 85 2 355 356 358 1 8 23 32 41 49 56 65 67 75 82 83 85 91 93 95 94 94 97 97 101 97
205 158 123 68 137 231 242 182 303 163 279 202 321 333 340 341 16 344 346 350 1 7 11 17 28 41 46 50 64 67 67 69 69 77 79 79 83 85 89 93 95 97 96 98
184 185 210 197 253 283 250 261 244 77 267 3 27 325 344 1 350 308 337 355 4 15 15 23 38 43 44 62 69 68 68 63 69 73 73 74 75 85 85 92 92 98 97 92
172 157 205 170 208 284 188 359 195 186 23 344 355 333 334 336 355 356 360 2 10 20 21 25 43 37 37 56 75 72 67 67 73 78 78 76 78 83 90 94 94 92 92 92
248 191 180 188 216 252 216 239 223 144 142 266 236 302 320 346 21 11 1 6 17 25 30 35 45 47 35 44 64 81 75 87 89 86 86 87 88 86 88 99 100 96 94 95
243 174 226 111 257 233 241 254 248 216 185 155 188 249 327 27 32 40 27 22 35 29 32 23 48 53 48 36 51 66 76 89 91 92 90 91 93 91 87 92 103 111 116 115
209 142 192 263 278 269 261 240 189 171 148 151 148 200 155 119 61 60 49 42 48 49 40 48 63 65 52 39 46 38 45 76 87 86 90 90 91 97 91 68 94 103 65 124
187 192 175 224 225 164 247 299 187 167 177 170 152 182 166 158 156 132 94 54 64 60 44 68 70 73 62 62 67 49 46 59 95 92 79 78 87 74 80 97 91 97 103 107